Terug naar catalogus

GEESAT 5-11

ActiefCommunicatieLEO
NORAD 65560·PAYLOAD·🇨🇳 China

Gelanceerd Sep 8, 2025 vanaf Yellow Sea Launch Area

Loading…

Volgende Passages (komende 24 uur)

TLE

VersSource: Space-Track

Epoch: Sep 14, 2026, 22:46 UTC

1 65560U 25201L   26257.94899904  .00001199  00000-0  16802-3 0  9996
2 65560  49.9892 342.3870 0008448 324.3591  35.6783 14.84396631 55156

Volg GEESAT 5-11 in realtime met AllMySat

Download on the App Store